Printer-friendly version
Follow the MPC on Twitter Follow the MPC on Facebook The MPC blog
Minor Planet Center

MPEC 2006-C09 : 2006 BX147

The following Minor Planet Electronic Circular may be linked-to from your own Web pages, but must not otherwise be redistributed electronically.

A form allowing access to any MPEC is at the bottom of this page.


Read MPEC 2006-C08 Read MPEC 2006-C10


M.P.E.C. 2006-C09                                Issued 2006 Feb. 3, 18:21 UT

     The Minor Planet Electronic Circulars contain information on unusual
         minor planets and routine data on comets.  They are published
   on behalf of Commission 20 of the International Astronomical Union by the
          Minor Planet Center, Smithsonian Astrophysical Observatory,
                          Cambridge, MA 02138, U.S.A.

                  Supported in part by the Brinson Foundation
                  Supported in part by the TABASGO Foundation
             Prepared using the Tamkin Foundation Computer Network

                              MPC@CFA.HARVARD.EDU
          URL http://cfa-www.harvard.edu/iau/mpc.html  ISSN 1523-6714

                                  2006 BX147

Observations:
     K06BE7X* C2006 01 27.61784 12 39 31.59 -36 49 24.9                 EC009E12
     K06BE7X  C2006 01 27.62452 12 39 17.35 -36 48 08.2          17.9 R EC009E12
     K06BE7X  C2006 01 27.63124 12 39 02.78 -36 46 49.4          17.8 R EC009E12
     K06BE7X  C2006 01 27.63790 12 38 48.42 -36 45 31.5          17.8 R EC009E12
     K06BE7X  C2006 01 27.65104 12 38 20.21 -36 42 57.3          18.0 R EC009E12
     K06BE7X  C2006 01 27.65134 12 38 19.55 -36 42 54.1          17.9 R EC009E12
     K06BE7X  C2006 01 27.65163 12 38 18.92 -36 42 50.6          17.9 R EC009E12
     K06BE7X  C2006 01 27.65193 12 38 18.29 -36 42 47.1          17.8 R EC009E12
     K06BE7X  C2006 01 27.65223 12 38 17.61 -36 42 43.5          17.6 R EC009E12

Observer details:
E12 Siding Spring Survey.  Observer R. H. McNaught.  0.5-m Uppsala Schmidt
    + CCD.

Orbital elements:
2006 BX147                                          PHA, Earth MOID = 0.0375 AU
Epoch 2006 Jan. 25.0 TT = JDT 2453760.5                 MPC
M  75.29452              (2000.0)            P               Q
n   1.41411736     Peri.  201.77704     +0.95119801     +0.28315318
a   0.7861023      Node   141.10215     -0.24637083     +0.93620901
e   0.6700476      Incl.   11.26496     -0.18580568     +0.20817534
P   0.70           H   21.4           G   0.15
From 9 observations 2006 Jan. 27-27.  E-assumed.

Ephemeris:
2006 BX147               a,e,i = 0.79, 0.67, 11                  q = 0.2594
Date    TT    R. A. (2000) Decl.     Delta      r     Elong.  Phase     V
2006 02 04    09 10.17   +00 31.2    0.0823   1.065   164.2    14.6    16.9
2006 02 09    08 10.94   +14 23.8    0.123    1.104   161.0    17.0    18.0
2006 02 14    07 42.15   +20 37.2    0.173    1.139   148.7    26.7    19.1
2006 02 19    07 27.06   +23 49.6    0.227    1.171   139.7    33.1    19.9
2006 02 24    07 19.15   +25 40.8    0.282    1.199   132.6    37.5    20.6
2006 03 01    07 15.53   +26 49.8    0.339    1.224   126.5    40.6    21.1
2006 03 06    07 14.76   +27 34.0    0.397    1.245   121.2    42.9    21.5
2006 03 11    07 15.97   +28 02.5    0.456    1.264   116.4    44.7    21.9
2006 03 16    07 18.62   +28 20.3    0.514    1.279   112.0    46.1    22.2

Kyle E. Smalley              (C) Copyright 2006 MPC           M.P.E.C. 2006-C09

Read MPEC 2006-C08 Read MPEC 2006-C10


MPEC number:

Enter an MPEC number in one of the following forms:

  • 1997-B01 (the full form)
  • J97B01 (the packed version of the full form)
  • B01 (the abbreviated form)

Valid HTML 4.01!